| time (UTC) | temp C | wind direction | speed KPH | gust KPH | rain 1hr cm | rain 24hr cm | rain mn cm | humidity % | barometer mb |
| 20260504235947 | 28 | 0.0 | 0.0 | 0.00 | 0.00 | 0.00 | 73 | 1009.1 | |
| 20260504234941 | 28 | 0.0 | 0.0 | 0.00 | 0.00 | 0.00 | 73 | 1009.1 | |
| 20260504233937 | 28 | 0.0 | 0.0 | 0.00 | 0.00 | 0.00 | 73 | 1009.1 | |
| 20260504232932 | 28 | 0.0 | 0.0 | 0.00 | 0.00 | 0.00 | 73 | 1009.1 | |
| 20260504231927 | 28 | 0.0 | 0.0 | 0.00 | 0.00 | 0.00 | 73 | 1009.1 | |
| 20260504230921 | 28 | 0.0 | 0.0 | 0.00 | 0.00 | 0.00 | 76 | 1009.0 | |
| 20260504225916 | 28 | 0.0 | 0.0 | 0.00 | 0.00 | 0.00 | 76 | 1008.9 | |
| 20260504224909 | 28 | 0.0 | 0.0 | 0.00 | 0.00 | 0.00 | 74 | 1008.8 | |
| 20260504223904 | 28 | 0.0 | 0.0 | 0.00 | 0.00 | 0.00 | 73 | 1008.7 | |
| 20260504222858 | 29 | 0.0 | 0.0 | 0.00 | 0.00 | 0.00 | 71 | 1008.6 | |
| 20260504221852 | 29 | 0.0 | 0.0 | 0.00 | 0.00 | 0.00 | 69 | 1008.5 | |
| 20260504220847 | 29 | 0.0 | 0.0 | 0.00 | 0.00 | 0.00 | 68 | 1008.5 | |
| 20260504215842 | 29 | 0.0 | 0.0 | 0.00 | 0.00 | 0.00 | 70 | 1008.5 | |
| 20260504214837 | 29 | 0.0 | 0.0 | 0.00 | 0.00 | 0.00 | 74 | 1008.5 | |
| 20260504213831 | 29 | 0.0 | 0.0 | 0.00 | 0.00 | 0.00 | 74 | 1008.6 | |
| 20260504212826 | 29 | 0.0 | 0.0 | 0.00 | 0.00 | 0.00 | 68 | 1008.6 | |
| 20260504211821 | 29 | 0.0 | 0.0 | 0.00 | 0.00 | 0.00 | 72 | 1008.7 | |
| 20260504210816 | 29 | 0.0 | 0.0 | 0.00 | 0.00 | 0.00 | 71 | 1008.7 | |
| 20260504205810 | 30 | 0.0 | 0.0 | 0.00 | 0.00 | 0.00 | 69 | 1008.7 | |
| 20260504204805 | 30 | 0.0 | 0.0 | 0.00 | 0.00 | 0.00 | 68 | 1008.7 | |
| 20260504203759 | 30 | 0.0 | 0.0 | 0.00 | 0.00 | 0.00 | 68 | 1008.7 | |
| 20260504202754 | 30 | 0.0 | 0.0 | 0.00 | 0.00 | 0.00 | 68 | 1008.8 | |
| 20260504201748 | 29 | 0.0 | 0.0 | 0.00 | 0.00 | 0.00 | 68 | 1008.9 | |
| 20260504200744 | 29 | 0.0 | 0.0 | 0.00 | 0.00 | 0.00 | 69 | 1008.9 | |
| 20260504195738 | 28 | 0.0 | 0.0 | 0.00 | 0.00 | 0.00 | 69 | 1009.1 | |
| 20260504194733 | 28 | 0.0 | 0.0 | 0.00 | 0.00 | 0.00 | 73 | 1009.2 | |
| 20260504193727 | 28 | 0.0 | 0.0 | 0.00 | 0.00 | 0.00 | 71 | 1009.3 | |
| 20260504192721 | 28 | 0.0 | 0.0 | 0.00 | 0.00 | 0.00 | 68 | 1009.4 | |
| 20260504191715 | 28 | 0.0 | 0.0 | 0.00 | 0.00 | 0.00 | 74 | 1009.6 | |
| 20260504190709 | 29 | 0.0 | 0.0 | 0.00 | 0.00 | 0.00 | 71 | 1009.8 | |
| 20260504185703 | 29 | 0.0 | 0.0 | 0.00 | 0.00 | 0.00 | 71 | 1010.0 | |
| 20260504184658 | 29 | 0.0 | 0.0 | 0.00 | 0.00 | 0.00 | 73 | 1010.1 | |
| 20260504183651 | 30 | 0.0 | 0.0 | 0.00 | 0.00 | 0.00 | 69 | 1010.2 | |
| 20260504182646 | 29 | 0.0 | 0.0 | 0.00 | 0.00 | 0.00 | 75 | 1010.4 | |
| 20260504181641 | 30 | 0.0 | 0.0 | 0.00 | 0.00 | 0.00 | 74 | 1010.5 | |
| 20260504180635 | 30 | 0.0 | 0.0 | 0.00 | 0.00 | 0.00 | 69 | 1010.5 | |
| 20260504175629 | 30 | 0.0 | 0.0 | 0.00 | 0.00 | 0.00 | 71 | 1010.7 | |
| 20260504174623 | 30 | 0.0 | 0.0 | 0.00 | 0.00 | 0.00 | 70 | 1010.8 | |
| 20260504173618 | 30 | 0.0 | 0.0 | 0.00 | 0.00 | 0.00 | 68 | 1010.9 | |
| 20260504172612 | 30 | 0.0 | 0.0 | 0.00 | 0.00 | 0.00 | 72 | 1011.0 | |
| 20260504171606 | 30 | 0.0 | 0.0 | 0.00 | 0.00 | 0.00 | 72 | 1011.0 | |
| 20260504170600 | 30 | 0.0 | 0.0 | 0.00 | 0.00 | 0.00 | 70 | 1011.0 | |
| 20260504150452 | 28 | 0.0 | 0.0 | 0.00 | 0.00 | 0.00 | 74 | 1009.9 | |
| 20260504140416 | 28 | 0.0 | 0.0 | 0.00 | 0.00 | 0.00 | 77 | 1009.3 | |
| 20260504130343 | 32 | 0.0 | 0.0 | 0.00 | 0.00 | 0.00 | 72 | 1007.7 | |
| 20260504120309 | 37 | 0.0 | 0.0 | 0.00 | 0.00 | 0.00 | 56 | 1006.4 | |
| 20260504110235 | 38 | 0.0 | 0.0 | 0.00 | 0.00 | 0.00 | 52 | 1005.9 | |
| 20260504100158 | 38 | 0.0 | 0.0 | 0.00 | 0.00 | 0.00 | 50 | 1006.6 | |
| 20260504090125 | 38 | 0.0 | 0.0 | 0.00 | 0.00 | 0.00 | 49 | 1007.4 | |
| 20260504081054 | 38 | 0.0 | 0.0 | 0.00 | 0.00 | 0.00 | 49 | 1008.0 | |
| 20260504045857 | 37 | 0.0 | 0.0 | 0.00 | 0.00 | 0.00 | 50 | 1009.8 | |
| 20260504044837 | 37 | 0.0 | 0.0 | 0.00 | 0.00 | 0.00 | 49 | 1009.8 | |
| 20260504043832 | 37 | 0.0 | 0.0 | 0.00 | 0.00 | 0.00 | 49 | 1009.9 | |
| 20260504042826 | 37 | 0.0 | 0.0 | 0.00 | 0.00 | 0.00 | 49 | 1009.9 | |
| 20260504041822 | 37 | 0.0 | 0.0 | 0.00 | 0.00 | 0.00 | 48 | 1009.9 | |
| 20260504040816 | 37 | 0.0 | 0.0 | 0.00 | 0.00 | 0.00 | 50 | 1009.9 | |
| 20260504035809 | 37 | 0.0 | 0.0 | 0.00 | 0.00 | 0.00 | 53 | 1009.9 | |
| 20260504034802 | 37 | 0.0 | 0.0 | 0.00 | 0.00 | 0.00 | 49 | 1009.9 | |
| 20260504033754 | 37 | 0.0 | 0.0 | 0.00 | 0.00 | 0.00 | 48 | 1009.8 | |
| 20260504032749 | 36 | 0.0 | 0.0 | 0.00 | 0.00 | 0.00 | 49 | 1009.8 | |
| 20260504031742 | 36 | 0.0 | 0.0 | 0.00 | 0.00 | 0.00 | 51 | 1009.7 | |
| 20260504030735 | 35 | 0.0 | 0.0 | 0.00 | 0.00 | 0.00 | 54 | 1009.6 | |
| 20260504025729 | 35 | 0.0 | 0.0 | 0.00 | 0.00 | 0.00 | 56 | 1009.5 | |
| 20260504024721 | 35 | 0.0 | 0.0 | 0.00 | 0.00 | 0.00 | 55 | 1009.3 | |
| 20260504023715 | 35 | 0.0 | 0.0 | 0.00 | 0.00 | 0.00 | 54 | 1009.2 | |
| 20260504022710 | 35 | 0.0 | 0.0 | 0.00 | 0.00 | 0.00 | 57 | 1009.1 | |
| 20260504021704 | 35 | 0.0 | 0.0 | 0.00 | 0.00 | 0.00 | 56 | 1008.9 | |
| 20260504020659 | 34 | 0.0 | 0.0 | 0.00 | 0.00 | 0.00 | 54 | 1008.8 | |
| 20260504015654 | 34 | 0.0 | 0.0 | 0.00 | 0.00 | 0.00 | 57 | 1008.6 | |
| 20260504014648 | 33 | 0.0 | 0.0 | 0.00 | 0.00 | 0.00 | 60 | 1008.5 | |
| 20260504013643 | 33 | 0.0 | 0.0 | 0.00 | 0.00 | 0.00 | 58 | 1008.4 | |
| 20260504012638 | 33 | 0.0 | 0.0 | 0.00 | 0.00 | 0.00 | 60 | 1008.3 | |
| 20260504011633 | 33 | 0.0 | 0.0 | 0.00 | 0.00 | 0.00 | 61 | 1008.2 | |
| 20260504010628 | 33 | 0.0 | 0.0 | 0.00 | 0.00 | 0.00 | 59 | 1008.1 | |
| 20260504005623 | 33 | 0.0 | 0.0 | 0.00 | 0.00 | 0.00 | 61 | 1008.0 | |
| 20260504004618 | 32 | 0.0 | 0.0 | 0.00 | 0.00 | 0.00 | 64 | 1007.9 | |
| 20260504003612 | 33 | 0.0 | 0.0 | 0.00 | 0.00 | 0.00 | 61 | 1007.8 | |
| 20260504002607 | 33 | 0.0 | 0.0 | 0.00 | 0.00 | 0.00 | 61 | 1007.8 | |
| 20260504001602 | 32 | 0.0 | 0.0 | 0.00 | 0.00 | 0.00 | 62 | 1007.7 |